IW1CGW-23 Weather Reports


time (UTC)temp
C
wind
direction
speed
KPH
gust
KPH
rain 1hr
cm
rain 24hr
cm
rain mn
cm
humidity
%
barometer
mb
20260507142613 18 0.0 0.0 0.00 0.00 0.00 74 1013.9
20260507141305 18 0.0 0.0 0.00 0.00 0.00 74 1014.0
20260507132051 18 0.0 0.0 0.00 0.00 0.00 74 1014.5
20260507124141 18 0.0 0.0 0.00 0.00 0.00 76 1014.4
20260507120231 18 0.0 0.0 0.00 0.00 0.00 75 1014.1
20260507113622 18 0.0 0.0 0.00 0.00 0.00 74 1014.1
20260507105705 20 0.0 0.0 0.00 0.00 0.00 72 1014.4
20260507103054 20 0.0 0.0 0.00 0.00 0.00 71 1014.4
20260507101748 20 0.0 0.0 0.00 0.00 0.00 71 1014.3
20260507100442 20 0.0 0.0 0.00 0.00 0.00 70 1014.4
20260507095137 20 0.0 0.0 0.00 0.00 0.00 70 1014.4
20260507084607 21 0.0 0.0 0.00 0.00 0.00 68 1014.0
20260507081955 21 0.0 0.0 0.00 0.00 0.00 67 1013.7
20260507074042 20 0.0 0.0 0.00 0.00 0.00 68 1013.7
20260507071428 23 0.0 0.0 0.00 0.00 0.00 64 1013.5
20260507064816 20 0.0 0.0 0.00 0.00 0.00 69 1013.4
20260507063507 18 0.0 0.0 0.00 0.00 0.00 71 1013.2
20260507054250 16 0.0 0.0 0.00 0.00 0.00 79 1012.7
20260507052953 15 0.0 0.0 0.00 0.00 0.00 81 1012.6
20260507051651 14 0.0 0.0 0.00 0.00 0.00 83 1012.4
20260507050343 13 0.0 0.0 0.00 0.00 0.00 85 1012.1
20260507045042 12 0.0 0.0 0.00 0.00 0.00 86 1012.0
20260507041141 11 0.0 0.0 0.00 0.00 0.00 86 1011.9
20260507035841 11 0.0 0.0 0.00 0.00 0.00 85 1011.9
20260507031940 11 0.0 0.0 0.00 0.00 0.00 85 1011.7
20260507030640 12 0.0 0.0 0.00 0.00 0.00 85 1011.8
20260507024039 12 0.0 0.0 0.00 0.00 0.00 85 1011.6
20260507020138 12 0.0 0.0 0.00 0.00 0.00 85 1011.3
20260507012236 12 0.0 0.0 0.00 0.00 0.00 85 1011.1
20260507010941 12 0.0 0.0 0.00 0.00 0.00 85 1011.0
20260507005635 12 0.0 0.0 0.00 0.00 0.00 85 1011.1
20260507003034 12 0.0 0.0 0.00 0.00 0.00 85 1011.1
20260506235132 13 0.0 0.0 0.00 0.00 0.00 85 1011.1
20260506233832 13 0.0 0.0 0.00 0.00 0.00 85 1011.1
20260506231230 13 0.0 0.0 0.00 0.00 0.00 85 1011.2
20260506225953 13 0.0 0.0 0.00 0.00 0.00 85 1011.2
20260506224629 13 0.0 0.0 0.00 0.00 0.00 85 1011.2
20260506222026 13 0.0 0.0 0.00 0.00 0.00 85 1011.1
20260506215425 13 0.0 0.0 0.00 0.00 0.00 84 1011.1
20260506212822 13 0.0 0.0 0.00 0.00 0.00 83 1011.2
20260506204918 15 0.0 0.0 0.00 0.00 0.00 82 1011.1
20260506202314 16 0.0 0.0 0.00 0.00 0.00 81 1010.8
20260506195711 16 0.0 0.0 0.00 0.00 0.00 80 1010.6
20260506194409 16 0.0 0.0 0.00 0.00 0.00 80 1010.6
20260506191804 16 0.0 0.0 0.00 0.00 0.00 79 1010.0
20260506185200 16 0.0 0.0 0.00 0.00 0.00 78 1009.6
20260506181253 17 0.0 0.0 0.00 0.00 0.00 76 1009.3
20260506175950 17 0.0 0.0 0.00 0.00 0.00 76 1009.3
20260506174648 17 0.0 0.0 0.00 0.00 0.00 76 1009.3
20260506173345 17 0.0 0.0 0.00 0.00 0.00 75 1009.1
20260506170738 17 0.0 0.0 0.00 0.00 0.00 75 1009.1
20260506164137 18 0.0 0.0 0.00 0.00 0.00 74 1009.2
20260506162830 18 0.0 0.0 0.00 0.00 0.00 74 1009.2
20260506153620 18 0.0 0.0 0.00 0.00 0.00 72 1009.1
20260506151007 19 0.0 0.0 0.00 0.00 0.00 73 1009.2
20260506144359 19 0.0 0.0 0.00 0.00 0.00 73 1009.3